[[{"header":{"parameterUnit":"m.s-1","parameterCategory":1,"la1":30.2991,"la2":30.254,"lo1":-89.0895,"lo2":-89.0444,"dy":0.0017,"dx":0.0017,"nx":28,"ny":28,"refTime":"2023-08-14T21:00:00:Z","depth":0,"parameterNumber":2,"parameterNumberName":"U-component_of_WINDS"},"data":[0,0,0,0,0,0,0,0,0,0,0,0,0,0,0,0,0,0,0,0,0,0,0,0,0,0,0,0,0,0,0,0,0,0,0,0,0,0,0,0,0,0,0,0,0,0,0,0,0,0,0,0,0,0,0,0,0,0,4.0176,4.0177,0,4.0249,4.025,4.0251,4.0205,4.0203,4.0201,4.0199,4.0281,4.0285,4.0289,0,0,0,0,0,0,0,0,0,0,0,0,0,4.0007,4.001,4.0176,4.0177,4.0178,4.0249,4.025,4.0251,4.0206,4.0203,4.0201,4.0198,4.028,4.0285,4.029,0,0,0,0,0,0,0,0,0,0,0,0,0,4.008,4.0011,4.0176,4.0164,4.0163,4.0249,4.025,4.0251,4.0206,4.0203,4.02,4.0197,4.0278,4.0284,4.029,4.0394,0,0,4.0309,4.0312,0,0,0,0,0,0,0,0,4.0076,4.0087,4.0165,4.0165,4.0164,4.0215,4.022,4.0299,4.0207,4.019,4.0199,4.0195,4.0262,4.0269,4.029,4.0398,4.0401,4.031,4.0314,4.0317,4.0318,0,0,0,0,0,0,0,4.0071,4.0083,4.0205,4.0166,4.0166,4.0158,4.0165,4.0235,4.0244,4.0191,4.0188,4.0197,4.0261,4.0284,4.0292,4.0402,4.031,4.0315,4.0319,4.0322,4.0603,4.0606,0,0,0,0,0,0,4.0066,4.0079,4.0203,4.0207,4.0111,4.0163,4.0171,4.0202,4.0243,4.0246,4.02,4.0195,4.0275,4.0285,4.0295,4.0421,4.0316,4.0322,4.0326,4.0599,4.0604,4.0608,0,0,0,0,0,0,4.0063,4.0077,4.02,4.0143,4.0157,4.017,4.0205,4.0205,4.0228,4.0249,4.0251,4.0221,4.0273,4.0286,4.037,4.0423,4.0325,4.0331,4.0595,4.0601,4.0606,4.0673,0,0,0,0,0,0,4.0058,4.0076,4.0113,4.0144,4.0161,4.0271,4.0208,4.0209,4.0238,4.0232,4.027,4.0273,4.0272,4.0361,4.0376,4.043,4.0336,4.059,4.0597,4.0604,4.0667,4.0681,4.0693,0,0,0,0,0,4.0052,4.013,4.0115,4.0131,4.0207,4.0274,4.0284,4.0279,4.0242,4.0282,4.0296,4.0272,4.0415,4.037,4.0387,4.0443,4.0587,4.0595,4.0603,4.0661,4.0678,4.0692,0,0,0,0,0,0,4.0108,4.0134,4.0118,4.0208,4.0239,4.0266,4.0315,4.0297,4.0341,4.0334,4.0328,4.0337,4.0426,4.0443,4.0392,4.0548,4.0496,4.0508,4.0533,4.055,4.0563,4.0557,4.0341,0,0,0,0,0,4.013,4.018,4.0201,4.0279,4.0295,4.0303,4.0332,4.0326,4.0359,4.0372,4.0392,4.0428,4.0481,4.0516,4.0566,4.0669,4.0678,4.0717,4.073,4.074,4.0751,4.0811,4.0829,4.0635,4.0635,4.0635,0,0,4.0178,4.0198,4.023,4.0291,4.0314,4.0369,4.0314,4.0374,4.0416,4.0382,4.0463,4.0479,4.0519,4.0613,4.0656,4.063,4.0807,4.0751,4.0759,4.0765,4.0821,4.0839,4.0856,4.0641,4.064,4.0639,0,0,4.0292,4.0312,4.038,4.0405,4.044,4.0445,4.0462,4.0493,4.0502,4.0583,4.0559,4.0611,4.0702,4.0732,4.0759,4.0889,4.087,4.0906,4.0974,4.1032,4.1047,4.1061,4.111,4.1127,4.0916,4.0916,4.0917,0,4.0348,4.0427,4.0418,4.048,4.0509,4.0479,4.0551,4.0576,4.0628,4.065,4.062,4.0735,4.076,4.0863,4.0895,4.0917,4.0938,4.0901,4.1045,4.1059,4.1072,4.1119,4.1137,4.0921,4.092,4.092,4.0919,0,4.0494,4.055,4.0602,4.0651,4.0685,4.0752,4.0756,4.0793,4.0785,4.0794,4.0879,4.0907,4.0964,4.0988,4.098,4.1091,4.1074,4.1045,4.0993,4.1095,4.1139,4.1156,4.0927,4.0925,4.0924,4.0923,0,0,4.0645,4.069,4.0709,4.0732,4.0771,4.0816,4.0883,4.0937,4.097,4.1007,4.1066,4.1145,4.1119,4.115,4.1146,4.1197,4.1302,4.1162,4.1163,4.1189,4.1429,4.1452,4.1473,4.1289,4.1292,4.1295,4.1427,0,4.0764,4.0878,4.0874,4.0982,4.1036,4.101,4.1069,4.1102,4.1113,4.1163,4.1176,4.1233,4.1193,4.1212,4.1261,4.1278,4.135,4.1269,4.1347,4.1349,4.1338,4.1495,4.1519,4.1642,4.1444,4.1447,4.1449,0,4.0917,4.0959,4.1072,4.1106,4.1129,4.1181,4.1232,4.1279,4.1317,4.1322,4.1358,4.1347,4.1419,4.1363,4.1465,4.1409,4.1441,4.1455,4.146,4.1468,4.1406,4.151,4.168,4.17,4.1475,4.1473,4.1471,0,4.1019,4.1104,4.1183,4.1204,4.1245,4.1283,4.1302,4.1336,4.137,4.1416,4.1438,4.1492,4.1522,4.1566,4.1571,4.153,4.1674,4.1619,4.1683,4.1683,4.1715,4.1713,4.1896,4.1734,4.1733,4.1733,4.1733,0,4.1153,4.1224,4.123,4.1279,4.1359,4.1355,4.1435,4.1452,4.1483,4.1537,4.1519,4.1571,4.1574,4.1629,4.1634,4.1719,4.1732,4.1741,4.1741,4.1743,4.1742,4.1764,4.1757,4.1738,4.1737,4.1736,4.1735,0,4.128,4.1286,4.1372,4.1404,4.1414,4.1472,4.1501,4.155,4.156,4.1629,4.1645,4.1663,4.1726,4.1735,4.181,4.1814,4.1916,4.1907,4.1903,4.1902,4.1967,4.1962,4.2171,4.22,4.2017,4.2019,4.2021,0,4.1366,4.142,4.1458,4.1492,4.1513,4.1569,4.1603,4.1603,4.164,4.1688,4.1732,4.1794,4.1842,4.1946,4.1967,4.2025,4.2019,4.2088,4.2028,4.2029,4.2023,4.202,4.2027,4.21,4.2102,4.2104,4.2105,0,4.1519,4.152,4.1568,4.162,4.1661,4.1702,4.174,4.177,4.1775,4.1818,4.1882,4.192,4.1997,4.2059,4.2117,4.2141,4.2126,4.2124,4.2143,4.2146,4.2141,4.2147,4.1937,4.212,4.2118,4.2117,4.2116,4.2116,4.1629,4.1677,4.1712,4.1768,4.1797,4.1834,4.1882,4.1899,4.1951,4.2012,4.2009,4.2081,4.2121,4.2197,4.2224,4.2282,4.226,4.2286,4.2293,4.23,4.2307,4.2131,4.2293,4.2292,4.2292,4.2292,4.2291,0,4.1783,4.1804,4.1856,4.191,4.1956,4.1935,4.1978,4.2018,4.208,4.2117,4.2166,4.2242,4.2303,4.2329,4.239,4.2432,4.2427,4.2448,4.2446,4.2452,4.2322,4.2301,4.2451,4.2451,4.2451,4.2451,4.2451,4.2451,4.1868,4.1949,4.1955,4.2051,4.2073,4.2141,4.2168,4.2203,4.2233,4.2317,4.2368,4.2384,4.2418,4.2482,4.2539,4.2545,4.2569,4.2595,4.2598,4.2477,4.2461,4.2445,4.2425,4.2599,4.26,4.2723,4.2724,4.2725]},{"header":{"parameterUnit":"m.s-1","parameterCategory":1,"la1":30.2991,"la2":30.254,"lo1":-89.0895,"lo2":-89.0444,"dy":0.0017,"dx":0.0017,"nx":28,"ny":28,"refTime":"2023-08-14T21:00:00:Z","depth":0,"parameterNumber":3,"parameterNumberName":"V-component_of_WINDS"},"data":[0,0,0,0,0,0,0,0,0,0,0,0,0,0,0,0,0,0,0,0,0,0,0,0,0,0,0,0,0,0,0,0,0,0,0,0,0,0,0,0,0,0,0,0,0,0,0,0,0,0,0,0,0,0,0,0,0,0,2.0776,2.0777,0,2.0873,2.0874,2.0875,2.089,2.0889,2.0888,2.0888,2.0983,2.0987,2.099,0,0,0,0,0,0,0,0,0,0,0,0,0,2.0598,2.0602,2.0776,2.0777,2.0778,2.0872,2.0874,2.0875,2.089,2.0889,2.0888,2.0887,2.0982,2.0986,2.099,0,0,0,0,0,0,0,0,0,0,0,0,0,2.0683,2.0603,2.0775,2.0797,2.08,2.0872,2.0874,2.0875,2.089,2.0889,2.0888,2.0887,2.0981,2.0986,2.0991,2.1047,0,0,2.1006,2.1008,0,0,0,0,0,0,0,0,2.0678,2.069,2.0793,2.0796,2.0799,2.0868,2.0846,2.0933,2.0891,2.0856,2.0888,2.0886,2.0946,2.0954,2.0974,2.1052,2.1056,2.1007,2.101,2.1012,2.1013,0,0,0,0,0,0,0,2.0672,2.0686,2.0814,2.0794,2.0798,2.08,2.0811,2.0863,2.0907,2.0859,2.086,2.0872,2.0947,2.097,2.0977,2.1057,2.1006,2.1011,2.1014,2.1016,2.1181,2.1182,0,0,0,0,0,0,2.0663,2.0681,2.0811,2.0817,2.0734,2.0804,2.0816,2.0847,2.0906,2.0914,2.0873,2.0872,2.0962,2.0971,2.098,2.1048,2.1012,2.1016,2.1019,2.118,2.1181,2.1183,0,0,0,0,0,0,2.0659,2.0675,2.0807,2.0749,2.0766,2.0809,2.0843,2.085,2.0872,2.0917,2.0924,2.0888,2.0961,2.0973,2.103,2.1051,2.1019,2.1023,2.1178,2.118,2.1182,2.1184,0,0,0,0,0,0,2.0654,2.0673,2.0697,2.075,2.0769,2.0856,2.0845,2.0852,2.0881,2.0881,2.0933,2.094,2.0961,2.1022,2.1035,2.1057,2.1027,2.1176,2.1179,2.1182,2.1182,2.1186,2.1189,0,0,0,0,0,2.0648,2.0693,2.0698,2.0713,2.0799,2.0858,2.0869,2.0893,2.0883,2.0905,2.0933,2.0938,2.1047,2.1028,2.1042,2.1067,2.1175,2.1178,2.1181,2.1181,2.1185,2.1189,0,0,0,0,0,0,2.0641,2.0701,2.0706,2.077,2.0809,2.086,2.089,2.0897,2.0939,2.0937,2.0964,2.0975,2.103,2.1054,2.1032,2.1122,2.111,2.1116,2.1104,2.1109,2.1112,2.1105,2.1031,0,0,0,0,0,2.0647,2.0691,2.074,2.0792,2.0811,2.0847,2.0873,2.0888,2.0929,2.0945,2.0977,2.1015,2.1057,2.1085,2.1127,2.1186,2.1196,2.1209,2.1213,2.1215,2.122,2.125,2.1256,2.1193,2.1193,2.1193,0,0,2.066,2.0698,2.0724,2.0791,2.0823,2.0866,2.086,2.0907,2.0938,2.0952,2.1007,2.1031,2.1075,2.1132,2.1159,2.1154,2.1239,2.1219,2.1221,2.1224,2.1253,2.1259,2.1264,2.1195,2.1195,2.1195,0,0,2.0705,2.0739,2.0784,2.0816,2.0864,2.0887,2.0898,2.0948,2.0965,2.1021,2.1031,2.1067,2.1141,2.1171,2.1195,2.1248,2.1253,2.1261,2.1278,2.1307,2.1312,2.1316,2.1333,2.1339,2.1266,2.1266,2.1266,0,2.0714,2.078,2.0806,2.0852,2.088,2.0894,2.0939,2.0968,2.1026,2.1044,2.1038,2.1129,2.1159,2.1222,2.1235,2.1255,2.1266,2.1255,2.131,2.1314,2.1319,2.1334,2.1341,2.1266,2.1266,2.1266,2.1266,0,2.0788,2.0834,2.0864,2.0921,2.0952,2.0997,2.1028,2.1056,2.1068,2.1091,2.1145,2.1183,2.1231,2.1247,2.1259,2.1311,2.1306,2.1304,2.1292,2.1325,2.134,2.1346,2.1267,2.1267,2.1266,2.1266,0,0,2.0832,2.0901,2.0911,2.0936,2.0989,2.1023,2.1067,2.1115,2.1137,2.1177,2.1213,2.1273,2.1271,2.1299,2.1314,2.134,2.1376,2.1335,2.1336,2.1339,2.1432,2.1431,2.1438,2.138,2.1381,2.1382,2.1427,0,2.0881,2.0961,2.0984,2.1051,2.1092,2.1105,2.1143,2.1178,2.12,2.1237,2.1261,2.1302,2.1298,2.1314,2.134,2.1366,2.1394,2.1363,2.1411,2.1412,2.1398,2.1447,2.1447,2.1488,2.1434,2.1435,2.1435,0,2.0949,2.0989,2.106,2.1105,2.1123,2.1157,2.1201,2.1237,2.1275,2.129,2.132,2.1332,2.1376,2.1362,2.1421,2.1399,2.142,2.1435,2.1437,2.1441,2.1425,2.145,2.1502,2.1507,2.1446,2.1445,2.1444,0,2.097,2.1043,2.1094,2.1114,2.1169,2.1192,2.1216,2.1254,2.128,2.1318,2.1334,2.1377,2.1399,2.1431,2.1453,2.1441,2.1509,2.1498,2.152,2.1519,2.1533,2.1531,2.1586,2.1549,2.1549,2.1549,2.1548,0,2.1021,2.1063,2.1104,2.1135,2.1181,2.1207,2.1252,2.1276,2.1309,2.1343,2.1357,2.1389,2.1418,2.1452,2.147,2.1514,2.1525,2.1536,2.1539,2.1534,2.1532,2.1546,2.1543,2.155,2.155,2.155,2.1549,0,2.1053,2.1082,2.1138,2.1185,2.1197,2.1229,2.1268,2.1298,2.132,2.1363,2.1374,2.1409,2.145,2.1476,2.1528,2.154,2.1588,2.1592,2.1575,2.1576,2.1596,2.1593,2.1661,2.167,2.1628,2.1629,2.1629,0,2.1083,2.1115,2.1166,2.119,2.1214,2.1253,2.128,2.1306,2.1332,2.1378,2.1401,2.1443,2.1478,2.1543,2.1571,2.161,2.1614,2.1635,2.162,2.1612,2.1612,2.1609,2.1611,2.1637,2.1638,2.1638,2.1638,0,2.1132,2.1144,2.1183,2.1226,2.1257,2.1292,2.1327,2.1345,2.1376,2.1405,2.1448,2.1475,2.1528,2.1569,2.161,2.1632,2.1639,2.1643,2.165,2.1643,2.1631,2.1635,2.158,2.1641,2.1641,2.164,2.164,2.164,2.1162,2.1191,2.123,2.1272,2.13,2.1332,2.1361,2.1387,2.1423,2.1469,2.1481,2.1525,2.1561,2.1617,2.164,2.1673,2.167,2.168,2.1682,2.1684,2.1683,2.1627,2.1681,2.168,2.168,2.168,2.168,0,2.121,2.1236,2.1274,2.1322,2.1354,2.1359,2.1397,2.1423,2.1462,2.1495,2.1529,2.1576,2.1615,2.1646,2.1686,2.1706,2.171,2.1715,2.1713,2.1717,2.1685,2.1674,2.1711,2.1711,2.1711,2.1711,2.1711,2.1711,2.1239,2.1286,2.1303,2.1364,2.1389,2.1433,2.1454,2.1482,2.1508,2.1561,2.1594,2.1614,2.1645,2.1687,2.1722,2.173,2.1742,2.1747,2.1755,2.1724,2.172,2.1717,2.1707,2.175,2.175,2.1784,2.1785,2.1785]}]]